Regional Weather Roundup
Issued by NWS

Home | Current Version | Previous Version | Text Only | Print | Product List | Glossary On
Versions: 1 2 3 4 5 6 7 8 9 10 11 12 13 14 15 16 17 18 19 20 21 22 23 24 25 26 27 28 29 30 31 32 33 34 35 36 37 38 39 40 41 42 43 44 45 46 47 48 49 50
000
ASHW40 PHFO 040710
RWRHI

WEATHER ROUNDUP FOR HAWAII
NATIONAL WEATHER SERVICE HONOLULU HI
900 PM HST TUE MAR 03 2015

THIS IS AN AUTOMATED REPORT THAT HAS NOT BEEN QUALITY CONTROLLED.

NOTE..."FAIR" INDICATES FEW OR NO CLOUDS BELOW 12,000 FEET WITH NO
SIGNIFICANT WEATHER AND/OR OBSTRUCTIONS TO VISIBILITY.

* - THESE SITES REPORT LIMITED FIELDS

HIZ001>004-040800-
KAUAI-NIIHAU-

CITY           SKY/WX    TMP DP  RH WIND       PRES   REMARKS
LIHUE APT      CLOUDY    73  63  68 N17G25    30.08R
PORT ALLEN*      N/A     70 N/A N/A NE6         N/A
POIPU*         NOT AVBL
PRINCEVILLE*     N/A     72 N/A N/A MISG        N/A
KOKOLE POINT*  NOT AVBL
MOLOAA DAIRY*  NOT AVBL
WAIMEA HTS*    NOT AVBL
PUU OPAE*      NOT AVBL
PUU LUA*       NOT AVBL
MAKAHA RIDGE*  NOT AVBL
$$

HIZ005>011-040800-
OAHU-

CITY           SKY/WX    TMP DP  RH WIND       PRES   REMARKS
HONOLULU       CLOUDY    74  65  73 N6G17     30.02R
KALAELOA       MOCLDY    73  64  73 VRB7      30.03R
KANEOHE MCB    CLOUDY    74  67  78 NE16      30.03R
WHEELER FIELD  MOCLDY    68  64  88 NW13      30.04R
BELLOWS*       NOT AVBL
KAHUKU*        NOT AVBL
WHEELER*       NOT AVBL
WAIANAE HARBOR NOT AVBL
DILLINGHAM*      N/A     72  66  83 MISG        N/A
KAHUKU TRN*      N/A     70  63  78 NE9G18      N/A
KAWAILOA*        N/A     66  64  94 NE9G18      N/A
KII*             N/A     73  66  78 NE15        N/A
MAKUA RANGE*     N/A     73  66  78 E13G26      N/A
OAHU FOREST NW NOT AVBL
SCHOFIELD BRK*   N/A     66  64  94 MISG        N/A
SCHOFIELD S*   NOT AVBL
WAIANAE VLY*   NOT AVBL
KUAOKALA*      NOT AVBL
HONOULIUULI*   NOT AVBL
MOKUOLOE IS*   NOT AVBL
PALEHUA*       NOT AVBL
WAIAWA PHB*    NOT AVBL
$$

HIZ012>013-040800-
MOLOKAI-

CITY           SKY/WX    TMP DP  RH WIND       PRES   REMARKS
MOLOKAI AIRPT  CLOUDY    72  69  90 N16G25    30.02R
KALAUPAPA      NOT AVBL
MAKAPULAPAI*   NOT AVBL
MOLOKAI 1*     NOT AVBL
PUU ALII*      NOT AVBL
$$

HIZ016-040800-
KAHOOLAWE-

CITY           SKY/WX    TMP DP  RH WIND       PRES   REMARKS
KAHOOLAWE*     NOT AVBL
HAKIOAWA*      NOT AVBL
HONOKANAIA*      N/A     75  69  82 VRB18G40    N/A
KANELOA*         N/A     73  68  83 MISG      29.18R
KEALIALALO*    NOT AVBL
LUA MAKIKA*    NOT AVBL
$$

HIZ014>015-040800-
LANAI-

CITY           SKY/WX    TMP DP  RH WIND       PRES   REMARKS
LANAI CITY     FAIR      68  68 100 NE25G36   30.04R
LANAI 1*       NOT AVBL
$$

HIZ017>028-040800-
MAUI-

CITY           SKY/WX    TMP DP  RH WIND       PRES   REMARKS
KAHULUI        CLOUDY    74  69  85 NE17      30.02R
KAPALUA-W MAUI NOT AVBL
HANA AIRPORT   CLOUDY    73  72  94 NE3       30.06R
HANA*          NOT AVBL
HALEAKALA SUMM   N/A     43  30  61 NW5G20      N/A
MAALAEA BAY*   NOT AVBL
HALEAKALA*     NOT AVBL
KAUPO GAP*     NOT AVBL
KULA 1*          N/A     53  45  73 E5          N/A
$$

HIZ023>026-040800-
BIG ISLAND OF HAWAII COAST AND LOWER SLOPES-

CITY           SKY/WX    TMP DP  RH WIND       PRES   REMARKS
KAILUA KONA    CLOUDY    79  66  64 SE10      29.96R
HILO           RAIN      72  70  93 CALM      30.01R
HONOKAA*       NOT AVBL
KAWAIHAE MWT*  NOT AVBL
KAWAIHAE*        N/A     79 N/A N/A SW12        N/A
SOUTH POINT*   NOT AVBL
UPOLU AIRPORT* NOT AVBL
KAMUELA*       MOSUNNY   64  64 100 NE16      30.09R
HAKALAU*         N/A     48  48 100 SW3         N/A
KALOKO-HONOKO* NOT AVBL
PALI 2*          N/A     66  61  82 N9G15       N/A
KEALAKOMO*       N/A     75  70  83 NE12G18     N/A
KAUPULEHU*     NOT AVBL
KAPAPALA*        N/A     69  66  90 CALM        N/A
LOWER KAHUKU*  NOT AVBL
PUHE CS*       NOT AVBL
PUHO CS*       NOT AVBL
PTA KEAMUKU*     N/A     61  57  88 CALM        N/A
WAIKOLOA*      NOT AVBL
$$

HIZ027>028-040800-
BIG ISLAND OF HAWAII INTERIOR AND SUMMMITS-

CITY           SKY/WX    TMP DP  RH WIND       PRES   REMARKS
BRADSHAW FIELD CLOUDY    52  46  80 SE8       30.30R
MK VISITOR CEN NOT AVBL
MAUNA KEA*       N/A     30  23  74 NW21        N/A  WCI  17
MAUNA LOA*       N/A     39  32  75 MISG        N/A
MAUNA LOA 1*   NOT AVBL
PTA KIPUKA*      N/A     54  52  94 S5          N/A
PTA RANGE 17*    N/A     55  52  88 E8          N/A
PTA WEST*        N/A     59  54  82 E12         N/A
NENE CABIN*    NOT AVBL
AHUMOA*        NOT AVBL
PTA PORTABLE*  NOT AVBL
PUU MALI*      NOT AVBL
$$

HIC003-040800-
NORTHWEST ISLANDS-

CITY           SKY/WX    TMP DP  RH WIND       PRES   REMARKS
MIDWAY ISLAND  CLOUDY    61  54  77 NE18G28   30.42R HAZE
MIDWAY NOS*    NOT AVBL
FRENCH FRIGATE NOT AVBL
$$

PHZ110>124-180-040800-
BUOY REPORTS

STATION/POSITION TIME  TEMP    WIND        PRES    WAVE   SWELL
                       AIR SEA DIR/SP/G            HT/PER HT/DIR
                 (UTC) (F)     (DEG/KT/KT) (MB)    (FT/S) (FT/D)
BUOY 51001       NOT AVBL
BUOY 51101       0700   69 71   30/ 19/ 23 1020.1R   9/ 7   5/ 20
BUOY 51100       0600   73 74   20/ 10/ 12 1016.7
BUOY 51003       0600   77 78   60/ 16/ 19 1014.9R   8/ 9   5
BUOY 51004       0553   78 78   90/ 19/ 25 1013.7R  10/10   8/ 70
BARBERS PT BUOY  NOT AVBL
WAIMEA BAY BUOY  0700      77                N/A     6/11   3/340
KAILUA BAY BUOY  0700      77                N/A     7/12   3/350
LANAI BUOY       0700      76                N/A     3/14   2/180
BARBERS PT 2     0700      77                N/A     4/15   2/180
PAUWELA MAUI     0700      75                N/A     8/11   3/350
HILO             0700      77                N/A     8/ 9   5/340
KANEOHE BAY BUOY 0700      77                N/A     7/11   3/360
HANALEI KAUAI    NOT AVBL
KAHULUI HARBOR   0700   74 77   30/ 12/ 16 1016.3R
HONOLULU HARBOR  0700   74 77  230/  3/  6 1016.4R
KILO NALU        NOT AVBL
HILO HARBOR      NOT AVBL
MOKUOLOE         0700   74 77   40/ 12/ 16 1017.1S
NAWILIWILI       0700   72 77  360/  5/  8 1018.1R
WHOTS BUOY       NOT AVBL
BUOY 51028       NOT AVBL
$$

......................KEY........................................
  SKY/WX - SKY CONDITIONS/PRESENT WEATHER
  TMP    - TEMPERATURE IN FAHRENHEIT
  DWPT   - DEWPOINT IN FAHRENHEIT
  RH     - RELATIVE HUMIDITY IN PERCENT
  WIND   - DIRECTION AND SPEED /MPH FOR ISLANDS...KTS FOR BUOYS/
  PRES   - MEAN SEA LEVEL PRESSURE IN INCHES OF HG
  VSB    - VISIBILITY IN MILES
  HX     - HEAT INDEX
  WCI    - WIND CHILL INDEX
  VRB    - VARIABLE WIND DIRECTION
  N/A    - NOT AVAILABLE


USA.gov is the U.S. government's official web portal to all federal, state and local government web resources and services.